Terminal Aerodrome Forecast
Issued by NWS

Home | Current Version | Previous Version | Text Only | Print | Product List | Glossary On
Versions: 1 2 3 4 5 6 7 8 9 10 11
000
FTUS45 KRIW 131139
TAFWRL
TAF
KWRL 131139Z 1312/1412 VRB05KT P6SM BKN250
     FM132200 33007KT P6SM VCSH BKN040 PROB30 1400/1403 -SHSN BKN022
     FM140300 34006KT P6SM BKN050
     FM140800 VRB05KT P6SM SCT060=

USA.gov is the U.S. government's official web portal to all federal, state and local government web resources and services.